Acatitlan, Mexico

10:21 AM CST on March 26, 2017 (GMT -0600)
Acatitlan

Weather History for 76601 - October, 2013

Change the Weather History Date:

Tuesday, October 1, 2013

  Actual Average Record
Temperature  
Mean Temperature 81 °F -  
Max Temperature 87 °F 87 °F - ()
Min Temperature 75 °F 73 °F - ()
Cooling Degree Days 16    
Growing Degree Days 31 (Base 50)    
Moisture  
Dew Point 74 °F    
Average Humidity 75    
Maximum Humidity 89    
Minimum Humidity 62    
Precipitation  
Precipitation 0.00 in - - ()
Sea Level Pressure  
Sea Level Pressure 29.86 in    
Wind  
Wind Speed 2 mph ()    
Max Wind Speed 14 mph    
Max Gust Speed -    
Visibility 13.2 miles    
Events      
T = Trace of Precipitation, MM = Missing Value Source: Averaged Metar Reports

Daily Weather History Graph

Daily Weather History Graph

Search for Another Location

Airport or City:

Trip Planner

Search our weather history database for the weather conditions in past years. The results will help you decide how hot, cold, wet, or windy it might be!

Date:

Astronomy

Oct. 01, 2013 Rise Set
Actual Time 7:52 AM CDT 7:48 PM CDT
Civil Twilight 7:30 AM CDT 8:10 PM CDT
Nautical Twilight 7:04 AM CDT 8:36 PM CDT
Astronomical Twilight 6:38 AM CDT 9:02 PM CDT
Moon 4:50 AM CDT (10/1) 5:35 PM CDT (10/1)
Length of Visible Light 12h 40m
Length of Day
11h 56m
Waning Crescent, 12% of the Moon is Illuminated
Oct 1
Waning Crescent
Oct 4
New
Oct 11
First Quarter
Oct 18
Full
Oct 26
Last Quarter

Hourly Weather History & Observations

Time (CDT) Temp. Heat Index Dew Point Humidity Pressure Visibility Wind Dir Wind Speed Gust Speed Precip Events Conditions
12:46 AM 80.6 °F 86.2 °F 75.2 °F 84% 29.87 in 12.0 mi Calm Calm - N/A   Clear
1:45 AM 78.8 °F - 73.4 °F 83% 29.88 in 12.0 mi Calm Calm - N/A   Clear
2:47 AM 77.0 °F - 73.4 °F 89% 29.87 in 12.0 mi Calm Calm - N/A   Clear
3:44 AM 77.0 °F - 73.4 °F 89% 29.84 in 12.0 mi Calm Calm - N/A   Scattered Clouds
4:44 AM 77.0 °F - 73.4 °F 89% 29.86 in 12.0 mi Calm Calm - N/A   Scattered Clouds
5:53 AM 75.2 °F - 71.6 °F 89% 29.86 in 12.0 mi North 4.6 mph - N/A   Scattered Clouds
6:47 AM 75.2 °F - 71.6 °F 89% 29.84 in 12.0 mi NNE 4.6 mph - N/A   Scattered Clouds
7:47 AM 75.2 °F - 71.6 °F 89% 29.87 in 15.0 mi Calm Calm - N/A   Scattered Clouds
8:44 AM 77.0 °F - 71.6 °F 83% 29.88 in 15.0 mi Calm Calm - N/A   Scattered Clouds
9:43 AM 80.6 °F 85.4 °F 73.4 °F 79% 29.88 in 15.0 mi Calm Calm - N/A   Mostly Cloudy
10:48 AM 86.0 °F 93.4 °F 73.4 °F 66% 29.90 in 15.0 mi Calm Calm - N/A   Mostly Cloudy
11:48 AM 87.8 °F 95.6 °F 73.4 °F 62% 29.90 in 15.0 mi Calm Calm - N/A   Mostly Cloudy
12:49 PM 87.8 °F 95.6 °F 73.4 °F 62% 29.88 in 15.0 mi South 5.8 mph - N/A   Mostly Cloudy
1:44 PM 87.8 °F 97.6 °F 75.2 °F 66% 29.89 in 15.0 mi SSW 9.2 mph - N/A   Mostly Cloudy
2:47 PM 87.8 °F 97.6 °F 75.2 °F 66% 29.87 in 15.0 mi SSW 13.8 mph - N/A   Mostly Cloudy
3:47 PM 86.0 °F 95.1 °F 75.2 °F 70% 29.83 in 15.0 mi SW 11.5 mph - N/A   Mostly Cloudy
4:49 PM 87.8 °F 99.7 °F 77.0 °F 70% 29.83 in 15.0 mi SW 8.1 mph - N/A   Mostly Cloudy
5:49 PM 87.8 °F 99.7 °F 77.0 °F 70% 29.82 in 12.0 mi SW 8.1 mph - N/A   Mostly Cloudy
6:49 PM 87.8 °F 95.6 °F 73.4 °F 62% 29.82 in 12.0 mi WSW 3.5 mph - N/A   Mostly Cloudy
7:49 PM 86.0 °F 91.8 °F 71.6 °F 62% 29.84 in 12.0 mi West 3.5 mph - N/A   Mostly Cloudy
8:49 PM 84.2 °F 89.6 °F 71.6 °F 66% 29.86 in 10.0 mi WNW 3.5 mph - N/A   Scattered Clouds
9:47 PM 82.4 °F 88.2 °F 73.4 °F 74% 29.86 in 12.0 mi North 4.6 mph - N/A   Mostly Cloudy
10:50 PM 82.4 °F 88.2 °F 73.4 °F 74% 29.88 in 12.0 mi North 3.5 mph - N/A   Partly Cloudy
11:45 PM 80.6 °F 85.4 °F 73.4 °F 79% 29.89 in 12.0 mi Calm Calm - N/A   Clear